• MPC Preparation (Info)

  • MPEC 2009-R05 : 2009 QV38

    The following Minor Planet Electronic Circular may be linked-to from your own Web pages, but must not otherwise be redistributed electronically.

    A form allowing access to any MPEC is at the bottom of this page.


    Read MPEC 2009-R04 Read MPEC 2009-R06


    M.P.E.C. 2009-R05                                Issued 2009 Sept. 3, 21:06 UT
    
         The Minor Planet Electronic Circulars contain information on unusual
             minor planets and routine data on comets.  They are published
       on behalf of Commission 20 of the International Astronomical Union by the
              Minor Planet Center, Smithsonian Astrophysical Observatory,
                              Cambridge, MA 02138, U.S.A.
    
                 Prepared using the Tamkin Foundation Computer Network
    
                                  MPC@CFA.HARVARD.EDU
              URL http://www.cfa.harvard.edu/iau/mpc.html  ISSN 1523-6714
    
                                       2009 QV38
    
    Observations:
         K09Q38V* C2009 08 28.92212 01 00 48.63 +05 45 03.6          19.9   ER005114
         K09Q38V  C2009 08 28.92587 01 00 48.57 +05 45 03.8          19.9   ER005114
         K09Q38V  C2009 08 28.93367 01 00 48.45 +05 45 04.0          20.1   ER005114
         K09Q38V  C2009 08 28.93758 01 00 48.39 +05 45 04.0          19.6   ER005114
         K09Q38V  C2009 08 29.91859 01 00 33.11 +05 45 22.8          20.2   ER005114
         K09Q38V  C2009 08 29.92250 01 00 33.04 +05 45 22.9          20.0   ER005114
         K09Q38V  C2009 08 29.92627 01 00 32.97 +05 45 22.7          19.8   ER005114
         K09Q38V  C2009 08 29.93017 01 00 32.90 +05 45 22.9          19.7   ER005114
         K09Q38V  C2009 08 29.93406 01 00 32.85 +05 45 23.1          20.0   ER005114
         K09Q38V  C2009 08 30.95899 01 00 16.37 +05 45 39.9          20.0   ER005114
         K09Q38V  C2009 08 30.96289 01 00 16.29 +05 45 39.9          20.4   ER005114
         K09Q38V  C2009 08 30.96682 01 00 16.20 +05 45 40.0          20.3   ER005114
         K09Q38V  C2009 08 30.97071 01 00 16.16 +05 45 40.1          20.3   ER005114
         K09Q38V  C2009 08 30.97468 01 00 16.10 +05 45 40.0          20.1   ER005114
         K09Q38V  C2009 09 01.01647 00 59 58.76 +05 45 55.0          20.6   ER005114
         K09Q38V  C2009 09 01.02025 00 59 58.70 +05 45 55.1          20.2   ER005114
         K09Q38V  C2009 09 01.02417 00 59 58.67 +05 45 56.3          20.0   ER005114
         K09Q38V  C2009 09 01.02808 00 59 58.62 +05 45 56.1          20.2   ER005114
         K09Q38V  C2009 09 01.03201 00 59 58.54 +05 45 56.2          20.1   ER005114
         K09Q38V  C2009 09 01.75987 00 59 46.08 +05 46 03.8          19.2 R ER005300
         K09Q38V  C2009 09 01.76201 00 59 46.06 +05 46 03.7          19.4 R ER005300
         K09Q38V  C2009 09 01.76416 00 59 46.00 +05 46 04.1          19.6 R ER005300
         K09Q38V  C2009 09 01.76630 00 59 45.98 +05 46 03.6          19.6 R ER005300
         K09Q38V  C2009 09 01.76844 00 59 45.98 +05 46 04.2          19.6 R ER005300
         K09Q38V  C2009 09 01.77059 00 59 45.94 +05 46 04.2          19.3 R ER005300
         K09Q38V  C2009 09 02.24988300 59 37.64 +05 46 08.6          18.9 V ER005H55
         K09Q38V  C2009 09 02.25849500 59 37.48 +05 46 08.6          19.0 V ER005H55
         K09Q38V  C2009 09 02.26107100 59 37.43 +05 46 08.6          18.8 V ER005H55
         K09Q38V 6C2009 09 03.48616 00 59 15.64 +05 46 18.8          19.9 R ER005F65
         K09Q38V 6C2009 09 03.48821 00 59 15.61 +05 46 18.8          19.9 R ER005F65
         K09Q38V 6C2009 09 03.49082 00 59 15.57 +05 46 18.5          19.7 R ER005F65
    
    Observer details:
    114 Engelhardt Observatory, Zelenchukskaya Station.  Observers T. Kryachko,
        B. Satovski.  Measurer T. Kryachko.  0.3-m f/7.7 reflector + CCD.
    300 Bisei Spaceguard Center--BATTeRS.  Observers A. Asami, S. Urakawa.  1.0-m
        f/3.0 reflector + CCD.
    F65 Haleakala-Faulkes Telescope North.  Observer R. Miles.  2.0-m f/10.0
        Ritchey-Chretien + CCD.
    H55 Astronomical Research Observatory, Charleston.  Observer R. Holmes.
        Measurer S. Foglia.
    
    Orbital elements:
    2009 QV38
    Epoch 2009 Aug. 17.0 TT = JDT 2455060.5                 MPC
    M   0.85040              (2000.0)            P               Q
    n   0.02594968     Peri.  354.56914     +0.99315303     -0.09628674
    a  11.2992086      Node    11.59811     +0.11568970     +0.73205852
    e   0.4704004      Incl.   19.21011     +0.01621560     +0.67440284
    P  38.0            H   11.7           G   0.15
    From 31 observations 2009 Aug. 28-Sept. 3.  E-assumed.
    
    Ephemeris:
    2009 QV38                a,e,i = 11.30, 0.47, 19                 q = 5.9841
    Date    TT    R. A. (2000) Decl.     Delta      r     Elong.  Phase     V
    2009 08 27    01 01.28   +05 44.3    5.205    5.988   137.4     6.6    19.7
    2009 09 06    00 58.48   +05 46.5    5.113    5.989   147.7     5.2    19.6
    2009 09 16    00 54.93   +05 44.7    5.046    5.992   158.3     3.6    19.4
    2009 09 26    00 50.85   +05 39.9    5.007    5.994   169.0     1.8    19.3
    2009 10 06    00 46.50   +05 33.4    4.998    5.997   179.5     0.1    19.1
    2009 10 16    00 42.17   +05 26.7    5.019    6.001   169.2     1.8    19.3
    2009 10 26    00 38.13   +05 21.1    5.070    6.005   158.3     3.5    19.5
    2009 11 05    00 34.67   +05 18.1    5.149    6.009   147.5     5.1    19.6
    2009 11 15    00 31.98   +05 19.0    5.254    6.013   136.8     6.5    19.7
    2009 11 25    00 30.22   +05 24.5    5.380    6.018   126.3     7.6    19.8
    2009 12 05    00 29.49   +05 35.4    5.524    6.023   116.1     8.4    19.9
    2009 12 15    00 29.82   +05 51.9    5.681    6.029   106.1     9.0    20.0
    2009 12 25    00 31.19   +06 14.1    5.845    6.035    96.4     9.3    20.1
    2010 01 04    00 33.56   +06 41.8    6.013    6.042    87.0     9.4    20.1
    2010 01 14    00 36.84   +07 14.5    6.180    6.048    77.8     9.1    20.2
    2010 01 24    00 40.96   +07 52.0    6.342    6.056    68.8     8.7    20.2
    2010 02 03    00 45.80   +08 33.6    6.495    6.063    60.0     8.1    20.2
    
    Timothy B. Spahr             (C) Copyright 2009 MPC           M.P.E.C. 2009-R05
    

    Read MPEC 2009-R04 Read MPEC 2009-R06


    MPEC number:

    Enter an MPEC number in one of the following forms:

    • 1997-B01 (the full form)
    • J97B01 (the packed version of the full form)
    • B01 (the abbreviated form)